Precipitable_Water
0.23 0.17 0.13 0.12 0.11 0.11 0.11 0.11 0.11 0.13 0.14 0.15 0.15 0.15 0.14 0.14 0.15 0.16 0.17 0.18 0.21 0.20 0.19 0.19 0.19 0.21 0.22 0.23 0.27 0.30 0.32 0.34 0.33 0.40 0.67 0.72 0.74 0.76 0.75 0.78 0.79 0.77 0.74 0.86 0.95 0.98 1.01 1.14 1.16 1.18 1.15 1.11 1.15 1.17 1.20 1.23 1.24 1.22 1.27 1.34 1.33 1.39 1.39 1.29 1.31 1.34 1.34 1.29 1.27 1.29 1.27 1.26 1.33 1.35 1.39 1.36 1.34 1.34 1.33 1.32 1.33 1.31 1.27 1.25 1.21 1.18
0.24 0.17 0.16 0.17 0.18 0.18 0.17 0.18 0.17 0.16 0.15 0.14 0.13 0.14 0.14 0.14 0.14 0.15 0.15 0.18 0.19 0.19 0.18 0.20 0.18 0.20 0.22 0.24 0.27 0.31 0.31 0.31 0.32 0.33 0.37 0.63 0.70 0.72 0.70 0.66 0.67 0.70 0.77 0.90 0.97 1.00 1.08 1.15 1.13 1.17 1.19 1.17 1.11 1.14 1.14 1.11 1.17 1.22 1.24 1.26 1.31 1.40 1.40 1.36 1.30 1.32 1.35 1.33 1.28 1.23 1.23 1.26 1.29 1.28 1.28 1.24 1.28 1.29 1.30 1.31 1.31 1.29 1.27 1.23 1.19 1.17
0.20 0.16 0.20 0.22 0.23 0.23 0.23 0.23 0.22 0.20 0.18 0.16 0.14 0.13 0.13 0.14 0.15 0.15 0.15 0.16 0.17 0.17 0.17 0.20 0.19 0.19 0.21 0.23 0.25 0.28 0.29 0.31 0.32 0.32 0.33 0.35 0.49 0.69 0.77 0.75 0.66 0.67 0.72 0.83 0.91 0.94 1.00 1.04 1.09 1.13 1.19 1.19 1.14 1.11 1.08 1.11 1.18 1.26 1.30 1.34 1.35 1.35 1.37 1.34 1.33 1.32 1.32 1.37 1.36 1.31 1.31 1.29 1.27 1.33 1.33 1.29 1.28 1.29 1.26 1.29 1.29 1.27 1.26 1.22 1.18 1.16
0.20 0.20 0.23 0.25 0.25 0.23 0.24 0.24 0.23 0.21 0.19 0.18 0.16 0.14 0.12 0.14 0.13 0.12 0.15 0.15 0.15 0.15 0.14 0.18 0.18 0.20 0.22 0.23 0.24 0.25 0.26 0.30 0.33 0.34 0.34 0.35 0.36 0.37 0.51 0.74 0.77 0.71 0.72 0.80 0.92 1.00 1.01 0.97 1.03 1.10 1.13 1.16 1.16 1.14 1.15 1.21 1.23 1.28 1.33 1.35 1.35 1.36 1.36 1.34 1.35 1.33 1.39 1.39 1.41 1.41 1.39 1.37 1.30 1.23 1.29 1.27 1.26 1.25 1.24 1.22 1.28 1.27 1.25 1.22 1.17 1.15
0.23 0.26 0.29 0.28 0.27 0.25 0.22 0.23 0.21 0.19 0.17 0.18 0.17 0.15 0.13 0.13 0.13 0.12 0.13 0.14 0.14 0.14 0.14 0.14 0.16 0.18 0.20 0.21 0.22 0.24 0.25 0.27 0.31 0.33 0.33 0.35 0.36 0.39 0.43 0.59 0.77 0.74 0.79 0.88 0.98 0.99 1.03 0.99 0.94 0.97 1.06 1.10 1.11 1.16 1.16 1.18 1.23 1.23 1.19 1.21 1.26 1.29 1.30 1.31 1.37 1.39 1.39 1.39 1.38 1.39 1.39 1.37 1.29 1.25 1.20 1.15 1.13 1.16 1.18 1.19 1.20 1.21 1.23 1.21 1.16 1.14
0.26 0.29 0.31 0.28 0.24 0.24 0.23 0.21 0.21 0.19 0.16 0.17 0.18 0.17 0.16 0.15 0.14 0.13 0.13 0.13 0.12 0.12 0.13 0.13 0.11 0.12 0.16 0.19 0.21 0.22 0.23 0.23 0.28 0.30 0.31 0.31 0.35 0.38 0.42 0.50 0.68 0.78 0.85 0.87 0.93 1.04 1.00 1.00 1.02 0.97 0.95 0.98 1.05 1.12 1.23 1.27 1.24 1.22 1.18 1.17 1.21 1.28 1.30 1.26 1.30 1.41 1.41 1.35 1.28 1.26 1.19 1.11 1.04 0.96 0.97 0.95 0.97 1.04 1.05 1.07 1.20 1.22 1.22 1.19 1.16 1.13
0.28 0.33 0.32 0.29 0.26 0.23 0.22 0.21 0.21 0.20 0.17 0.15 0.16 0.18 0.17 0.16 0.15 0.14 0.14 0.13 0.11 0.11 0.12 0.14 0.10 0.09 0.14 0.15 0.19 0.22 0.22 0.22 0.26 0.29 0.30 0.30 0.32 0.37 0.42 0.52 0.65 0.76 0.84 0.91 0.90 0.96 1.07 1.15 1.14 1.04 0.95 0.87 0.87 1.03 1.20 1.31 1.33 1.30 1.28 1.25 1.24 1.24 1.27 1.31 1.30 1.33 1.38 1.34 1.31 1.24 1.16 1.08 0.96 0.93 0.97 1.03 1.09 1.08 1.11 1.16 1.15 1.17 1.20 1.18 1.13 1.11
0.31 0.30 0.30 0.29 0.27 0.24 0.21 0.20 0.22 0.21 0.18 0.15 0.18 0.18 0.18 0.16 0.15 0.15 0.15 0.14 0.13 0.14 0.14 0.14 0.12 0.10 0.11 0.14 0.18 0.21 0.22 0.22 0.23 0.26 0.28 0.29 0.29 0.33 0.43 0.54 0.63 0.73 0.76 0.82 0.84 0.82 0.84 1.04 1.27 1.21 1.05 0.94 0.81 0.81 1.08 1.25 1.32 1.29 1.27 1.25 1.19 1.20 1.22 1.26 1.29 1.31 1.31 1.28 1.26 1.22 1.18 1.10 1.04 1.02 0.96 1.00 1.06 1.11 1.13 1.11 1.11 1.14 1.15 1.15 1.12 1.08
0.31 0.28 0.29 0.27 0.26 0.23 0.20 0.22 0.24 0.24 0.19 0.17 0.19 0.19 0.17 0.17 0.17 0.17 0.16 0.15 0.15 0.14 0.12 0.12 0.14 0.10 0.11 0.16 0.20 0.21 0.19 0.20 0.21 0.24 0.25 0.27 0.28 0.30 0.32 0.44 0.56 0.59 0.66 0.70 0.71 0.81 0.84 0.83 0.94 1.22 1.32 1.14 0.88 0.83 0.81 1.03 1.22 1.27 1.27 1.23 1.18 1.14 1.16 1.23 1.27 1.27 1.28 1.27 1.26 1.23 1.17 1.09 1.12 1.10 1.07 1.08 1.09 1.07 1.10 1.06 1.09 1.09 1.10 1.10 1.09 1.08
0.34 0.32 0.32 0.31 0.28 0.24 0.24 0.25 0.25 0.25 0.19 0.21 0.20 0.18 0.17 0.18 0.18 0.17 0.16 0.15 0.15 0.13 0.11 0.12 0.13 0.10 0.10 0.14 0.16 0.22 0.19 0.17 0.18 0.21 0.24 0.26 0.27 0.28 0.30 0.31 0.41 0.68 0.73 0.70 0.68 0.69 0.77 0.84 0.86 0.81 0.89 1.11 1.05 0.93 0.87 0.87 1.07 1.19 1.22 1.19 1.15 1.11 1.16 1.22 1.26 1.26 1.26 1.26 1.30 1.26 1.20 1.10 1.08 1.08 1.07 1.07 1.03 1.03 1.05 1.01 1.03 1.05 1.06 1.05 1.04 1.05
0.34 0.39 0.39 0.32 0.28 0.29 0.29 0.27 0.26 0.25 0.24 0.24 0.21 0.17 0.16 0.16 0.16 0.17 0.17 0.16 0.14 0.11 0.12 0.13 0.13 0.12 0.09 0.12 0.15 0.16 0.18 0.20 0.19 0.18 0.22 0.25 0.25 0.27 0.30 0.32 0.35 0.37 0.53 0.67 0.69 0.70 0.73 0.77 0.75 0.78 0.85 0.97 1.07 1.02 1.02 1.04 1.05 1.14 1.16 1.14 1.10 1.08 1.15 1.22 1.22 1.21 1.19 1.27 1.29 1.22 1.17 1.12 1.06 1.05 1.02 0.99 0.98 0.99 0.98 0.97 0.98 1.00 1.01 1.03 1.00 1.03
0.32 0.32 0.30 0.32 0.35 0.33 0.32 0.26 0.26 0.26 0.24 0.21 0.18 0.17 0.15 0.14 0.15 0.14 0.15 0.16 0.12 0.10 0.13 0.15 0.14 0.13 0.09 0.11 0.15 0.18 0.20 0.20 0.19 0.19 0.19 0.22 0.24 0.25 0.28 0.31 0.33 0.38 0.42 0.50 0.58 0.64 0.69 0.69 0.77 0.94 1.04 1.06 1.02 1.02 1.04 1.10 1.14 1.13 1.12 1.10 1.05 1.09 1.14 1.15 1.18 1.19 1.21 1.23 1.24 1.21 1.17 1.10 1.06 1.03 0.97 0.95 0.94 0.95 0.93 0.95 0.96 1.00 1.01 0.99 1.00 0.99
0.26 0.28 0.33 0.33 0.37 0.32 0.30 0.25 0.24 0.24 0.23 0.20 0.19 0.16 0.12 0.11 0.11 0.09 0.11 0.11 0.11 0.10 0.14 0.16 0.15 0.12 0.11 0.12 0.15 0.18 0.18 0.19 0.19 0.20 0.19 0.19 0.21 0.23 0.26 0.28 0.30 0.32 0.38 0.48 0.55 0.65 0.71 0.71 0.73 0.77 0.89 1.11 1.26 1.19 1.08 1.10 1.13 1.12 1.10 1.06 1.03 1.05 1.12 1.12 1.15 1.15 1.19 1.22 1.18 1.13 1.09 1.06 1.02 0.98 0.94 0.97 0.96 0.95 0.92 0.93 0.95 0.97 0.93 0.95 0.93 0.92
0.22 0.28 0.29 0.31 0.31 0.36 0.32 0.24 0.23 0.20 0.22 0.21 0.18 0.16 0.12 0.09 0.08 0.08 0.09 0.12 0.12 0.14 0.16 0.15 0.17 0.12 0.13 0.13 0.15 0.16 0.18 0.19 0.19 0.21 0.21 0.21 0.20 0.22 0.23 0.25 0.28 0.28 0.30 0.39 0.53 0.61 0.66 0.72 0.76 0.79 0.82 0.88 1.12 1.30 1.29 1.15 1.11 1.09 1.07 1.05 1.03 1.03 1.08 1.11 1.14 1.16 1.19 1.19 1.14 1.10 1.04 1.02 1.01 0.94 0.94 0.95 0.92 0.93 0.94 0.95 0.95 0.96 0.93 0.91 0.89 0.90
0.15 0.17 0.23 0.27 0.24 0.35 0.32 0.29 0.28 0.25 0.24 0.22 0.24 0.19 0.15 0.12 0.10 0.08 0.09 0.08 0.09 0.11 0.14 0.18 0.14 0.12 0.10 0.11 0.15 0.17 0.18 0.20 0.20 0.20 0.21 0.23 0.23 0.23 0.23 0.24 0.25 0.26 0.26 0.31 0.47 0.61 0.67 0.66 0.71 0.82 0.86 0.90 0.97 1.08 1.23 1.24 1.14 1.11 1.06 1.03 1.01 1.01 1.06 1.11 1.13 1.16 1.16 1.14 1.15 1.12 1.08 1.01 1.03 1.01 0.97 0.97 0.96 0.94 0.93 0.94 0.95 0.98 0.99 0.96 0.95 0.93
0.20 0.19 0.26 0.33 0.31 0.32 0.29 0.33 0.33 0.29 0.25 0.26 0.25 0.24 0.17 0.15 0.16 0.10 0.12 0.11 0.11 0.10 0.10 0.12 0.13 0.15 0.13 0.16 0.17 0.18 0.18 0.18 0.19 0.18 0.19 0.20 0.22 0.23 0.22 0.22 0.22 0.22 0.23 0.23 0.35 0.65 0.77 0.80 0.85 0.88 0.89 0.89 0.95 1.05 1.16 1.16 1.14 1.10 1.04 1.03 1.02 1.00 1.02 1.08 1.11 1.13 1.11 1.10 1.13 1.11 1.09 1.05 1.06 1.08 1.05 1.04 1.03 1.00 0.98 0.99 0.99 0.99 1.02 1.02 1.02 1.02
0.21 0.17 0.26 0.27 0.33 0.32 0.31 0.32 0.30 0.29 0.17 0.24 0.22 0.19 0.21 0.25 0.19 0.16 0.13 0.15 0.14 0.12 0.09 0.12 0.12 0.13 0.16 0.16 0.17 0.17 0.16 0.16 0.17 0.17 0.17 0.18 0.20 0.21 0.21 0.21 0.21 0.22 0.25 0.24 0.29 0.51 0.78 0.89 0.90 0.96 0.99 1.09 1.01 1.07 1.09 1.10 1.10 1.05 1.01 1.00 0.99 0.99 1.01 1.04 1.09 1.10 1.11 1.09 1.09 1.10 1.09 1.08 1.07 1.11 1.06 1.00 0.98 0.98 1.00 1.02 1.04 1.05 1.07 1.10 1.09 1.06
0.20 0.18 0.25 0.27 0.26 0.32 0.35 0.34 0.31 0.29 0.28 0.25 0.20 0.23 0.27 0.30 0.25 0.19 0.12 0.13 0.11 0.09 0.09 0.11 0.08 0.08 0.10 0.09 0.14 0.15 0.15 0.15 0.15 0.16 0.17 0.18 0.20 0.21 0.21 0.21 0.22 0.23 0.26 0.28 0.32 0.42 0.66 0.86 0.91 0.87 0.86 1.05 1.30 1.13 1.08 1.06 1.05 1.02 0.99 0.95 0.94 0.98 1.00 1.05 1.10 1.11 1.11 1.08 1.06 1.08 1.10 1.10 1.06 1.06 1.09 1.08 1.08 1.10 1.03 1.03 1.06 1.09 1.09 1.08 1.12 1.13
0.31 0.18 0.23 0.29 0.30 0.33 0.35 0.32 0.28 0.30 0.30 0.26 0.25 0.33 0.22 0.19 0.16 0.22 0.17 0.11 0.10 0.08 0.08 0.09 0.10 0.10 0.10 0.09 0.11 0.11 0.13 0.14 0.15 0.16 0.16 0.16 0.19 0.21 0.22 0.22 0.23 0.25 0.26 0.27 0.32 0.43 0.58 0.74 0.85 0.86 0.86 0.90 1.24 1.48 1.25 1.07 1.02 1.01 0.98 1.02 1.00 0.98 1.01 1.05 1.08 1.10 1.10 1.09 1.04 1.05 1.06 1.10 1.10 1.09 1.09 1.10 1.13 1.16 1.11 1.05 1.06 1.08 1.11 1.16 1.18 1.16
0.34 0.22 0.21 0.30 0.30 0.33 0.32 0.31 0.20 0.22 0.28 0.31 0.33 0.29 0.32 0.25 0.22 0.19 0.19 0.18 0.16 0.12 0.11 0.10 0.12 0.09 0.10 0.10 0.10 0.11 0.13 0.13 0.14 0.14 0.14 0.15 0.16 0.19 0.21 0.23 0.24 0.24 0.25 0.25 0.30 0.44 0.58 0.63 0.76 0.81 0.81 0.82 1.10 1.38 1.51 1.21 1.03 0.95 0.96 1.00 1.05 1.08 1.09 1.09 1.09 1.09 1.06 1.08 1.07 1.04 1.03 1.05 1.09 1.09 1.10 1.10 1.10 1.10 1.11 1.11 1.11 1.14 1.18 1.19 1.24 1.23
0.30 0.33 0.19 0.26 0.32 0.31 0.23 0.28 0.25 0.24 0.21 0.23 0.23 0.23 0.25 0.24 0.28 0.25 0.26 0.21 0.17 0.15 0.14 0.12 0.10 0.10 0.11 0.15 0.14 0.14 0.14 0.16 0.16 0.16 0.16 0.16 0.16 0.17 0.19 0.21 0.23 0.24 0.24 0.24 0.24 0.28 0.48 0.68 0.68 0.75 0.73 0.72 0.98 1.17 1.37 1.34 1.09 0.99 0.99 0.99 0.99 1.01 1.07 1.10 1.10 1.10 1.07 1.04 1.00 1.03 1.02 1.02 1.07 1.09 1.11 1.12 1.09 1.06 1.08 1.14 1.20 1.22 1.24 1.29 1.27 1.28
0.32 0.31 0.22 0.25 0.25 0.24 0.25 0.32 0.31 0.30 0.28 0.26 0.24 0.21 0.22 0.21 0.19 0.15 0.14 0.21 0.19 0.16 0.13 0.13 0.09 0.11 0.13 0.17 0.17 0.17 0.17 0.17 0.18 0.19 0.19 0.19 0.19 0.18 0.18 0.18 0.20 0.24 0.24 0.25 0.25 0.26 0.31 0.45 0.66 0.68 0.69 0.73 0.90 0.95 1.18 1.20 1.09 1.04 1.01 1.00 0.99 0.99 1.01 1.01 1.03 1.04 1.04 1.01 0.99 1.02 1.04 1.05 1.10 1.13 1.13 1.09 1.08 1.03 1.01 1.07 1.16 1.25 1.31 1.28 1.30 1.34
0.43 0.36 0.30 0.24 0.26 0.27 0.30 0.33 0.36 0.36 0.36 0.33 0.31 0.27 0.27 0.25 0.23 0.19 0.14 0.15 0.20 0.19 0.19 0.16 0.13 0.09 0.14 0.17 0.18 0.18 0.19 0.19 0.18 0.19 0.20 0.20 0.20 0.20 0.20 0.20 0.20 0.21 0.23 0.25 0.25 0.28 0.30 0.34 0.49 0.71 0.77 0.76 0.80 0.94 1.07 1.09 1.08 1.07 1.04 1.02 1.00 0.97 0.96 0.97 0.94 0.96 0.99 0.98 0.98 1.00 1.04 1.07 1.10 1.14 1.17 1.15 1.09 1.03 1.01 1.01 1.09 1.26 1.30 1.32 1.35 1.39
0.48 0.34 0.28 0.29 0.33 0.34 0.35 0.35 0.36 0.36 0.35 0.32 0.33 0.34 0.31 0.27 0.28 0.25 0.24 0.25 0.21 0.22 0.19 0.17 0.14 0.09 0.17 0.19 0.17 0.17 0.18 0.18 0.18 0.18 0.18 0.20 0.21 0.22 0.21 0.21 0.21 0.21 0.22 0.24 0.25 0.25 0.27 0.30 0.37 0.47 0.77 0.91 0.95 0.99 1.10 1.12 1.07 1.04 1.00 0.98 0.96 0.92 0.91 0.93 0.94 0.95 0.96 0.96 0.94 0.98 1.00 1.01 1.07 1.13 1.16 1.14 1.14 1.08 1.06 1.08 1.07 1.14 1.28 1.34 1.40 1.38
0.35 0.38 0.33 0.26 0.25 0.26 0.27 0.31 0.33 0.37 0.37 0.33 0.32 0.35 0.34 0.35 0.34 0.33 0.32 0.31 0.22 0.22 0.21 0.18 0.14 0.11 0.20 0.23 0.23 0.22 0.21 0.19 0.18 0.18 0.19 0.19 0.21 0.22 0.22 0.22 0.22 0.22 0.23 0.23 0.26 0.26 0.25 0.26 0.32 0.38 0.49 0.75 1.01 1.08 1.07 1.07 1.05 1.03 1.08 1.12 0.98 0.91 0.95 0.93 0.96 0.98 0.99 0.94 0.92 0.95 0.98 0.98 1.01 1.03 1.08 1.13 1.17 1.15 1.14 1.15 1.14 1.10 1.17 1.29 1.32 1.35
0.42 0.38 0.35 0.25 0.20 0.18 0.18 0.19 0.22 0.26 0.29 0.34 0.37 0.35 0.36 0.35 0.34 0.32 0.26 0.28 0.22 0.25 0.25 0.20 0.17 0.17 0.24 0.26 0.25 0.25 0.24 0.22 0.21 0.20 0.19 0.20 0.20 0.21 0.22 0.22 0.23 0.23 0.23 0.24 0.24 0.26 0.27 0.26 0.29 0.34 0.41 0.49 0.69 0.92 1.01 1.04 1.08 1.01 0.91 0.91 1.10 1.16 0.98 0.97 0.98 1.00 0.99 0.96 0.93 0.94 0.96 0.98 0.99 0.98 1.02 1.12 1.20 1.24 1.23 1.20 1.17 1.11 1.12 1.22 1.27 1.33
0.41 0.41 0.38 0.35 0.30 0.27 0.29 0.32 0.38 0.40 0.37 0.31 0.33 0.35 0.35 0.38 0.39 0.38 0.36 0.30 0.24 0.27 0.25 0.26 0.26 0.23 0.23 0.25 0.28 0.27 0.28 0.27 0.25 0.23 0.22 0.21 0.20 0.22 0.23 0.23 0.24 0.25 0.25 0.25 0.25 0.25 0.28 0.27 0.26 0.30 0.35 0.42 0.50 0.65 0.90 1.04 1.07 1.04 0.96 0.90 0.87 0.97 1.17 1.10 0.95 0.97 0.98 1.00 0.96 0.93 0.92 0.94 0.96 0.98 1.02 1.10 1.19 1.28 1.32 1.26 1.21 1.16 1.13 1.18 1.23 1.29
0.44 0.37 0.39 0.40 0.39 0.39 0.41 0.40 0.42 0.43 0.37 0.37 0.36 0.36 0.39 0.39 0.40 0.37 0.33 0.28 0.36 0.32 0.22 0.27 0.32 0.29 0.26 0.29 0.30 0.31 0.32 0.32 0.32 0.30 0.29 0.28 0.25 0.22 0.23 0.25 0.26 0.27 0.27 0.26 0.26 0.25 0.25 0.27 0.27 0.26 0.31 0.37 0.42 0.48 0.60 0.83 1.07 1.12 1.10 0.96 0.93 0.97 0.99 1.19 1.19 0.96 0.98 0.98 0.98 0.95 0.94 0.95 0.97 0.99 1.02 1.09 1.17 1.25 1.30 1.29 1.24 1.19 1.19 1.23 1.24 1.27
0.41 0.35 0.41 0.42 0.40 0.43 0.45 0.44 0.45 0.44 0.43 0.42 0.42 0.42 0.40 0.43 0.43 0.38 0.38 0.41 0.40 0.32 0.26 0.32 0.36 0.33 0.33 0.36 0.38 0.40 0.41 0.40 0.40 0.39 0.37 0.36 0.34 0.31 0.28 0.26 0.27 0.27 0.28 0.27 0.26 0.26 0.25 0.26 0.28 0.28 0.27 0.33 0.38 0.40 0.43 0.50 0.63 0.88 1.04 1.13 1.07 0.98 1.14 1.26 1.24 1.17 0.98 0.96 0.95 0.97 1.00 1.02 1.04 1.04 1.04 1.09 1.16 1.22 1.25 1.24 1.21 1.19 1.21 1.23 1.25 1.29
0.46 0.38 0.42 0.44 0.40 0.42 0.44 0.45 0.46 0.45 0.44 0.44 0.43 0.44 0.44 0.43 0.42 0.42 0.41 0.42 0.41 0.38 0.41 0.41 0.41 0.38 0.41 0.44 0.47 0.48 0.51 0.51 0.49 0.49 0.48 0.44 0.40 0.37 0.33 0.29 0.27 0.28 0.29 0.29 0.28 0.27 0.26 0.26 0.27 0.28 0.28 0.27 0.34 0.38 0.40 0.43 0.47 0.55 0.66 0.83 0.85 0.81 0.90 1.08 1.25 1.29 1.11 0.98 0.97 1.01 1.06 1.09 1.09 1.06 1.07 1.10 1.13 1.18 1.22 1.21 1.20 1.20 1.22 1.22 1.24 1.27
0.46 0.38 0.46 0.45 0.39 0.38 0.42 0.45 0.46 0.45 0.44 0.41 0.44 0.45 0.43 0.43 0.43 0.44 0.43 0.43 0.44 0.42 0.43 0.43 0.41 0.38 0.44 0.52 0.52 0.55 0.56 0.56 0.55 0.51 0.48 0.47 0.45 0.42 0.38 0.34 0.30 0.28 0.28 0.30 0.30 0.28 0.27 0.25 0.26 0.28 0.29 0.27 0.29 0.34 0.37 0.38 0.41 0.46 0.50 0.60 0.79 0.90 0.99 1.00 1.04 1.21 1.17 0.97 0.97 1.00 1.07 1.11 1.10 1.08 1.06 1.06 1.09 1.15 1.19 1.19 1.18 1.18 1.20 1.22 1.23 1.24
0.51 0.42 0.49 0.44 0.36 0.34 0.40 0.42 0.43 0.46 0.45 0.42 0.41 0.41 0.42 0.41 0.38 0.41 0.39 0.44 0.42 0.39 0.41 0.42 0.38 0.38 0.47 0.57 0.60 0.61 0.61 0.59 0.55 0.53 0.52 0.50 0.48 0.46 0.42 0.37 0.32 0.30 0.29 0.29 0.30 0.30 0.29 0.27 0.25 0.26 0.30 0.29 0.28 0.32 0.34 0.36 0.38 0.46 0.43 0.46 0.55 0.70 0.93 1.07 1.14 1.18 1.16 1.08 0.97 0.96 0.97 0.99 1.01 1.03 1.04 1.07 1.08 1.11 1.14 1.15 1.14 1.12 1.13 1.15 1.16 1.22
0.48 0.44 0.41 0.40 0.34 0.33 0.40 0.43 0.42 0.42 0.41 0.36 0.37 0.40 0.43 0.44 0.44 0.44 0.46 0.48 0.48 0.48 0.41 0.37 0.39 0.49 0.54 0.59 0.57 0.59 0.61 0.61 0.60 0.58 0.55 0.54 0.52 0.48 0.45 0.41 0.36 0.32 0.30 0.30 0.30 0.30 0.30 0.29 0.27 0.25 0.27 0.32 0.31 0.31 0.33 0.34 0.38 0.43 0.48 0.44 0.47 0.55 0.66 0.82 1.06 1.19 1.16 1.13 1.10 1.03 0.99 1.00 1.00 0.99 0.99 1.02 1.07 1.11 1.11 1.08 1.08 1.08 1.09 1.09 1.14 1.20
0.49 0.46 0.42 0.44 0.33 0.33 0.38 0.40 0.41 0.36 0.26 0.29 0.46 0.51 0.48 0.43 0.43 0.40 0.40 0.45 0.49 0.51 0.47 0.51 0.52 0.56 0.58 0.59 0.57 0.58 0.60 0.62 0.65 0.66 0.65 0.59 0.54 0.52 0.49 0.46 0.41 0.35 0.32 0.31 0.31 0.30 0.30 0.30 0.29 0.27 0.27 0.30 0.34 0.33 0.35 0.35 0.36 0.38 0.41 0.52 0.54 0.52 0.51 0.55 0.64 0.82 0.87 0.91 1.00 1.06 1.07 1.04 1.01 0.97 0.97 1.00 1.06 1.11 1.12 1.08 1.04 1.06 1.10 1.12 1.17 1.20
0.44 0.44 0.40 0.44 0.36 0.33 0.38 0.38 0.30 0.25 0.28 0.45 0.53 0.54 0.53 0.50 0.48 0.45 0.46 0.49 0.52 0.54 0.54 0.53 0.55 0.56 0.59 0.61 0.62 0.64 0.66 0.69 0.71 0.70 0.70 0.68 0.62 0.56 0.52 0.49 0.45 0.38 0.35 0.32 0.32 0.31 0.31 0.30 0.30 0.28 0.28 0.29 0.33 0.36 0.38 0.39 0.40 0.41 0.43 0.43 0.47 0.54 0.58 0.54 0.52 0.54 0.58 0.65 0.73 0.81 0.90 0.94 0.94 0.92 0.92 0.92 0.97 1.06 1.10 1.09 1.04 1.06 1.11 1.14 1.13 1.14
0.42 0.41 0.40 0.40 0.40 0.39 0.35 0.31 0.22 0.25 0.43 0.50 0.51 0.52 0.53 0.50 0.49 0.47 0.41 0.47 0.52 0.54 0.55 0.53 0.56 0.59 0.61 0.63 0.66 0.69 0.69 0.71 0.73 0.71 0.71 0.71 0.69 0.60 0.55 0.53 0.49 0.43 0.34 0.34 0.33 0.33 0.32 0.32 0.30 0.27 0.26 0.29 0.33 0.37 0.41 0.44 0.49 0.48 0.46 0.47 0.46 0.47 0.52 0.55 0.53 0.53 0.53 0.54 0.55 0.57 0.66 0.76 0.80 0.81 0.81 0.81 0.84 0.94 1.02 1.08 1.08 1.03 1.06 1.10 1.12 1.14
0.45 0.45 0.42 0.36 0.41 0.29 0.32 0.31 0.30 0.40 0.41 0.44 0.43 0.43 0.45 0.42 0.44 0.43 0.35 0.42 0.52 0.56 0.57 0.55 0.57 0.60 0.62 0.65 0.67 0.70 0.72 0.71 0.67 0.67 0.72 0.68 0.67 0.66 0.60 0.56 0.56 0.51 0.42 0.35 0.35 0.34 0.34 0.34 0.32 0.29 0.28 0.28 0.30 0.31 0.36 0.40 0.44 0.47 0.50 0.51 0.50 0.49 0.48 0.48 0.48 0.49 0.50 0.50 0.51 0.54 0.55 0.60 0.67 0.71 0.74 0.77 0.79 0.88 0.92 0.98 1.06 1.09 1.10 1.07 1.07 1.06
0.46 0.39 0.42 0.36 0.33 0.38 0.30 0.28 0.29 0.29 0.26 0.34 0.43 0.48 0.53 0.55 0.56 0.56 0.48 0.41 0.53 0.58 0.61 0.59 0.58 0.61 0.62 0.64 0.67 0.71 0.74 0.67 0.56 0.55 0.64 0.66 0.61 0.61 0.65 0.60 0.58 0.55 0.50 0.42 0.38 0.36 0.34 0.35 0.35 0.32 0.29 0.28 0.29 0.29 0.30 0.33 0.35 0.39 0.43 0.44 0.44 0.44 0.47 0.48 0.47 0.47 0.48 0.49 0.52 0.55 0.61 0.66 0.66 0.66 0.73 0.80 0.82 0.87 0.92 0.95 1.04 1.09 1.11 1.03 1.00 1.01
0.45 0.47 0.43 0.38 0.34 0.35 0.32 0.28 0.27 0.25 0.30 0.43 0.42 0.48 0.54 0.57 0.57 0.58 0.46 0.36 0.52 0.59 0.63 0.63 0.60 0.61 0.64 0.65 0.68 0.72 0.65 0.55 0.55 0.61 0.67 0.65 0.62 0.58 0.59 0.61 0.58 0.54 0.50 0.45 0.40 0.37 0.34 0.35 0.35 0.34 0.31 0.29 0.28 0.30 0.30 0.31 0.33 0.33 0.37 0.43 0.47 0.45 0.41 0.41 0.44 0.46 0.46 0.47 0.51 0.53 0.57 0.66 0.72 0.70 0.73 0.81 0.88 0.93 0.95 0.97 0.99 1.06 1.10 1.07 1.06 1.05
0.37 0.39 0.38 0.34 0.32 0.34 0.32 0.29 0.27 0.33 0.34 0.42 0.47 0.51 0.56 0.58 0.57 0.50 0.30 0.30 0.50 0.60 0.64 0.63 0.61 0.63 0.66 0.70 0.72 0.68 0.62 0.54 0.59 0.68 0.75 0.64 0.58 0.58 0.56 0.59 0.57 0.52 0.46 0.44 0.44 0.42 0.37 0.35 0.34 0.33 0.32 0.30 0.29 0.31 0.32 0.32 0.33 0.31 0.31 0.37 0.45 0.48 0.49 0.49 0.49 0.48 0.48 0.48 0.49 0.52 0.57 0.64 0.73 0.79 0.78 0.82 0.93 1.01 1.02 1.04 1.07 1.08 1.08 1.11 1.12 1.10
0.32 0.35 0.36 0.30 0.32 0.33 0.32 0.32 0.34 0.37 0.47 0.47 0.49 0.55 0.57 0.59 0.52 0.34 0.29 0.40 0.57 0.62 0.66 0.66 0.65 0.69 0.71 0.70 0.72 0.63 0.70 0.74 0.77 0.81 0.80 0.63 0.54 0.52 0.55 0.59 0.59 0.51 0.45 0.43 0.44 0.44 0.39 0.36 0.34 0.33 0.32 0.32 0.33 0.33 0.34 0.34 0.34 0.33 0.31 0.32 0.38 0.47 0.51 0.53 0.53 0.54 0.54 0.52 0.53 0.58 0.63 0.66 0.71 0.80 0.86 0.89 0.95 1.04 1.07 1.08 1.07 1.07 1.06 1.07 1.12 1.11
0.29 0.33 0.32 0.34 0.30 0.30 0.32 0.30 0.29 0.35 0.43 0.49 0.53 0.57 0.59 0.48 0.32 0.32 0.48 0.62 0.62 0.63 0.68 0.70 0.70 0.73 0.74 0.73 0.73 0.74 0.77 0.82 0.82 0.82 0.77 0.63 0.54 0.49 0.51 0.55 0.55 0.50 0.46 0.45 0.45 0.43 0.39 0.36 0.34 0.33 0.33 0.34 0.35 0.37 0.39 0.39 0.37 0.37 0.36 0.34 0.36 0.43 0.53 0.57 0.57 0.58 0.60 0.58 0.55 0.61 0.67 0.71 0.76 0.84 0.90 0.96 1.02 1.07 1.08 1.10 1.11 1.11 1.08 1.09 1.10 1.07
0.29 0.29 0.26 0.29 0.32 0.34 0.32 0.29 0.27 0.24 0.38 0.51 0.54 0.53 0.57 0.42 0.43 0.56 0.61 0.64 0.67 0.68 0.69 0.71 0.74 0.75 0.77 0.74 0.78 0.79 0.81 0.83 0.80 0.77 0.77 0.62 0.52 0.47 0.46 0.50 0.48 0.43 0.41 0.42 0.43 0.43 0.39 0.35 0.34 0.33 0.33 0.34 0.35 0.36 0.37 0.38 0.39 0.43 0.45 0.40 0.39 0.44 0.49 0.53 0.51 0.48 0.52 0.57 0.59 0.65 0.69 0.71 0.77 0.88 0.98 1.02 1.03 1.04 1.06 1.11 1.13 1.14 1.14 1.10 1.08 1.05
0.38 0.30 0.27 0.31 0.36 0.27 0.27 0.25 0.26 0.36 0.44 0.52 0.52 0.42 0.50 0.54 0.61 0.63 0.63 0.60 0.67 0.70 0.70 0.72 0.75 0.79 0.80 0.79 0.79 0.80 0.81 0.82 0.80 0.79 0.78 0.66 0.53 0.45 0.46 0.47 0.45 0.42 0.40 0.40 0.41 0.40 0.36 0.34 0.33 0.33 0.34 0.34 0.35 0.35 0.37 0.37 0.36 0.39 0.43 0.46 0.52 0.53 0.55 0.55 0.50 0.46 0.43 0.45 0.53 0.66 0.72 0.73 0.73 0.86 1.05 1.10 1.09 1.07 1.06 1.09 1.14 1.16 1.14 1.10 1.07 1.03
0.39 0.36 0.36 0.28 0.36 0.33 0.30 0.34 0.41 0.47 0.49 0.52 0.53 0.54 0.57 0.60 0.64 0.66 0.67 0.66 0.65 0.69 0.75 0.74 0.75 0.80 0.83 0.82 0.82 0.83 0.82 0.84 0.85 0.85 0.77 0.69 0.52 0.44 0.44 0.44 0.44 0.42 0.41 0.39 0.39 0.41 0.37 0.33 0.32 0.32 0.33 0.34 0.34 0.35 0.36 0.37 0.35 0.36 0.38 0.43 0.49 0.53 0.56 0.56 0.55 0.52 0.48 0.46 0.50 0.61 0.73 0.75 0.74 0.79 1.00 1.19 1.19 1.12 1.09 1.13 1.18 1.17 1.17 1.12 1.08 1.06
0.46 0.46 0.46 0.40 0.34 0.42 0.44 0.43 0.46 0.48 0.48 0.48 0.51 0.55 0.56 0.59 0.63 0.67 0.67 0.66 0.69 0.72 0.76 0.75 0.79 0.81 0.83 0.86 0.81 0.82 0.84 0.85 0.86 0.87 0.81 0.70 0.56 0.47 0.46 0.45 0.44 0.44 0.43 0.42 0.42 0.41 0.39 0.37 0.35 0.34 0.32 0.33 0.34 0.35 0.35 0.36 0.36 0.34 0.37 0.43 0.46 0.48 0.49 0.49 0.49 0.48 0.46 0.45 0.49 0.60 0.72 0.73 0.73 0.78 0.93 1.10 1.20 1.19 1.18 1.12 1.16 1.19 1.14 1.12 1.08 1.07
0.45 0.46 0.42 0.34 0.37 0.33 0.25 0.37 0.38 0.41 0.45 0.45 0.46 0.51 0.55 0.59 0.60 0.64 0.66 0.68 0.70 0.74 0.77 0.81 0.82 0.83 0.84 0.86 0.82 0.82 0.84 0.88 0.88 0.88 0.84 0.75 0.62 0.53 0.47 0.44 0.42 0.42 0.41 0.38 0.39 0.39 0.39 0.39 0.37 0.34 0.32 0.30 0.33 0.34 0.34 0.35 0.37 0.36 0.37 0.38 0.42 0.44 0.45 0.45 0.45 0.44 0.43 0.42 0.44 0.52 0.65 0.71 0.70 0.75 0.91 1.15 1.21 1.17 1.18 1.20 1.20 1.20 1.16 1.10 1.08 1.08
0.37 0.48 0.40 0.38 0.37 0.31 0.29 0.35 0.37 0.41 0.44 0.45 0.46 0.46 0.47 0.52 0.57 0.60 0.64 0.69 0.73 0.76 0.78 0.80 0.84 0.83 0.86 0.84 0.86 0.85 0.85 0.87 0.88 0.89 0.88 0.81 0.72 0.63 0.55 0.47 0.44 0.43 0.43 0.43 0.43 0.42 0.41 0.40 0.39 0.38 0.37 0.35 0.36 0.36 0.35 0.36 0.36 0.37 0.37 0.37 0.38 0.40 0.41 0.40 0.39 0.38 0.38 0.39 0.42 0.48 0.58 0.66 0.68 0.72 0.87 1.12 1.16 1.15 1.19 1.22 1.22 1.15 1.11 1.09 1.10 1.09
0.43 0.46 0.33 0.39 0.35 0.37 0.38 0.38 0.37 0.38 0.39 0.42 0.45 0.47 0.49 0.50 0.52 0.56 0.61 0.66 0.71 0.73 0.74 0.77 0.82 0.83 0.85 0.84 0.87 0.87 0.85 0.87 0.90 0.92 0.92 0.89 0.82 0.74 0.66 0.58 0.54 0.48 0.46 0.43 0.43 0.43 0.41 0.40 0.40 0.41 0.40 0.39 0.40 0.40 0.41 0.41 0.40 0.40 0.39 0.39 0.39 0.39 0.38 0.37 0.36 0.36 0.36 0.37 0.39 0.46 0.54 0.60 0.66 0.73 0.88 1.08 1.17 1.17 1.14 1.16 1.18 1.14 1.14 1.20 1.23 1.18
0.42 0.33 0.40 0.38 0.31 0.30 0.30 0.34 0.37 0.28 0.28 0.34 0.40 0.45 0.46 0.48 0.50 0.50 0.54 0.60 0.67 0.71 0.74 0.73 0.74 0.80 0.83 0.86 0.86 0.87 0.85 0.86 0.90 0.93 0.93 0.94 0.93 0.87 0.80 0.72 0.67 0.61 0.57 0.56 0.49 0.44 0.43 0.43 0.43 0.44 0.45 0.47 0.49 0.48 0.47 0.47 0.48 0.51 0.51 0.48 0.45 0.42 0.40 0.39 0.38 0.37 0.36 0.37 0.40 0.44 0.49 0.57 0.64 0.72 0.86 1.09 1.19 1.20 1.19 1.23 1.24 1.22 1.16 1.17 1.26 1.29
0.37 0.38 0.39 0.33 0.32 0.30 0.37 0.39 0.41 0.38 0.36 0.36 0.39 0.44 0.45 0.47 0.47 0.46 0.47 0.53 0.62 0.70 0.75 0.75 0.72 0.73 0.76 0.81 0.87 0.86 0.86 0.87 0.89 0.93 0.93 0.93 0.96 0.98 0.97 0.87 0.80 0.77 0.71 0.68 0.62 0.59 0.55 0.50 0.48 0.48 0.48 0.50 0.53 0.52 0.51 0.50 0.50 0.49 0.50 0.51 0.50 0.48 0.45 0.44 0.42 0.40 0.39 0.40 0.40 0.43 0.49 0.58 0.63 0.71 0.92 1.11 1.15 1.17 1.10 1.07 1.18 1.26 1.30 1.32 1.34 1.34
Wind_Speed
2 3 4 6 8 10 12 13 15 16 17 17 18 19 20 21 22 21 22 25 26 26 29 31 31 33 34 34 33 32 31 30 28 27 30 31 30 31 33 33 33 33 30 29 29 29 29 29 30 29 29 29 28 28 29 29 30 30 31 33 34 35 34 32 30 27 27 29 28 27 27 26 23 20 19 18 18 18 16 14 13 13 12 10 8 7
2 4 5 6 8 9 10 11 13 14 15 16 17 18 19 20 22 22 21 22 24 26 29 30 30 30 33 34 34 33 31 32 31 29 29 32 31 31 33 35 36 34 30 29 30 30 30 30 30 29 29 30 29 28 28 28 30 31 30 31 32 33 33 33 32 29 28 29 29 27 27 27 24 21 20 19 19 18 16 15 14 13 12 10 9 7
2 5 6 6 7 8 9 11 11 13 14 15 15 16 18 19 20 21 20 19 20 24 28 30 30 30 31 33 34 35 33 32 33 33 30 30 32 33 33 36 36 33 30 30 32 31 30 31 31 29 29 30 29 28 27 27 29 30 30 29 30 30 31 31 31 29 27 29 29 27 27 27 24 22 21 20 20 19 17 16 15 14 13 11 9 7
3 5 6 7 7 8 9 9 9 10 12 13 13 14 15 16 17 19 20 19 18 21 25 28 29 29 29 31 33 36 35 33 33 35 33 31 33 33 33 35 35 33 31 32 32 31 30 32 32 30 30 30 29 27 27 27 28 29 29 29 28 29 30 30 30 29 27 28 29 28 27 27 24 22 22 21 20 20 18 17 16 15 14 12 10 8
4 5 5 6 6 7 8 8 8 8 10 12 13 13 14 14 16 18 19 18 18 19 22 24 26 28 30 30 32 34 35 34 33 34 33 32 33 32 32 35 36 34 32 32 33 33 32 33 33 32 31 30 29 29 28 29 29 29 29 28 28 29 30 29 29 29 28 28 28 28 28 27 25 23 23 22 21 21 19 18 17 16 15 13 11 9
5 5 4 5 6 6 6 7 8 8 9 11 13 14 14 13 14 16 16 15 15 17 18 18 19 25 30 32 33 33 34 34 32 32 32 31 32 33 32 33 35 35 33 33 33 33 33 34 34 33 33 32 31 30 30 30 30 30 30 29 28 29 30 29 28 29 29 29 29 28 28 28 27 25 24 24 23 22 21 19 18 17 16 15 12 10
5 5 4 4 5 4 4 6 7 7 7 10 12 12 12 12 12 13 14 14 16 18 17 15 16 20 25 31 33 33 34 34 32 31 32 30 30 32 32 32 33 35 34 34 34 34 34 34 34 34 35 33 32 31 31 31 32 31 31 30 29 28 29 29 29 29 29 29 29 29 29 28 28 26 25 25 24 23 22 20 18 17 16 16 14 11
5 6 5 4 4 4 4 6 7 6 6 10 11 10 11 11 11 12 13 15 17 18 17 15 16 17 20 26 31 32 33 33 32 33 33 32 31 31 32 32 34 35 36 36 35 35 35 34 34 35 37 35 34 32 31 32 34 34 33 32 30 28 29 29 31 31 30 30 30 30 30 29 27 26 25 26 26 24 22 21 19 18 17 16 15 13
5 6 5 5 5 5 5 7 7 6 7 10 11 11 12 12 12 12 12 14 16 17 17 16 15 17 19 22 24 28 31 33 34 34 34 34 33 32 32 32 34 36 37 38 37 36 37 36 35 35 37 38 37 35 34 34 35 35 34 33 31 30 29 29 31 32 32 31 31 30 31 30 28 27 26 26 27 25 23 22 20 19 18 17 16 14
6 6 6 6 6 6 6 7 7 6 8 10 9 10 11 11 13 13 13 14 14 16 19 17 15 16 19 21 21 23 27 31 33 35 35 35 34 34 33 32 34 36 37 39 39 38 38 38 37 36 37 39 39 37 36 36 36 36 35 35 33 31 30 29 30 32 32 33 32 31 31 31 29 28 27 27 28 26 24 23 22 20 19 18 16 15
7 8 7 6 6 6 6 7 7 7 8 9 7 8 9 10 12 14 13 13 13 16 19 18 15 15 18 21 23 23 24 27 29 32 34 35 35 35 35 33 34 36 37 39 40 41 40 41 40 37 37 39 39 39 38 38 38 37 36 35 34 32 30 30 30 31 31 32 32 32 32 32 31 29 29 29 28 27 25 24 23 22 20 19 17 15
5 5 5 6 6 6 6 7 7 7 7 7 6 7 8 9 10 12 13 13 14 17 19 17 15 15 18 21 23 23 24 25 26 29 32 34 34 34 35 34 33 34 37 39 41 42 42 42 41 39 38 38 38 39 40 40 39 39 37 35 34 33 32 31 30 30 30 31 32 32 31 32 31 31 30 30 29 28 26 25 24 23 21 20 18 16
3 3 3 5 6 5 5 6 7 7 7 7 6 6 6 8 8 10 13 14 15 18 18 16 15 16 20 23 24 24 24 24 25 28 30 32 34 34 34 34 33 32 34 38 40 42 42 43 42 41 40 39 38 39 41 42 41 40 38 37 35 34 33 32 32 31 30 31 31 29 30 31 30 30 31 30 30 29 27 26 25 24 22 21 19 17
3 3 3 4 5 5 5 6 7 7 7 6 6 6 7 7 7 10 12 13 16 18 17 15 14 17 20 22 24 26 25 25 25 27 29 30 32 34 34 34 34 33 32 35 39 41 42 44 44 43 42 41 40 40 41 41 41 40 39 38 37 35 34 34 33 31 31 31 31 29 29 30 30 30 30 30 30 29 28 26 25 24 23 22 20 18
2 3 4 4 5 5 5 6 8 8 7 8 7 7 8 7 8 10 11 12 14 17 17 16 15 17 20 22 23 25 26 26 26 26 27 28 30 32 33 33 34 34 33 34 37 40 43 45 45 45 43 42 43 42 41 41 40 40 39 39 38 36 35 34 34 33 32 32 32 30 29 30 31 31 31 30 30 30 28 27 26 25 24 22 21 19
2 3 4 4 4 4 4 5 6 7 8 9 9 7 8 9 8 9 10 12 13 14 17 18 18 21 22 23 24 24 25 26 26 26 26 28 29 29 30 32 33 35 34 34 36 39 41 43 45 46 44 43 45 46 43 41 40 40 39 39 39 37 36 34 34 34 33 32 33 32 30 29 31 32 32 30 30 30 29 28 27 25 24 23 22 20
3 4 5 5 3 3 3 4 4 5 8 9 9 9 10 10 9 9 11 11 10 12 15 16 20 22 22 24 25 24 25 26 26 26 26 28 29 28 29 31 32 34 34 33 34 37 40 42 44 45 44 43 46 48 47 45 43 41 40 40 40 38 37 36 35 35 34 32 33 34 32 31 31 32 33 31 31 30 29 28 27 26 24 23 22 21
5 6 6 4 3 4 3 3 4 4 6 7 8 10 10 9 8 9 9 9 9 12 15 15 19 21 20 22 24 23 25 26 26 27 27 27 29 29 29 30 31 32 33 33 33 36 40 42 44 46 46 45 46 47 49 48 45 42 40 40 41 40 39 38 37 36 35 34 34 35 35 34 33 32 33 33 32 31 30 29 28 26 25 24 23 22
6 6 5 3 3 5 4 2 4 5 4 5 8 8 8 7 8 8 9 9 10 13 14 14 17 20 21 23 24 24 25 26 27 27 27 27 28 30 30 29 30 32 31 31 32 36 39 41 43 45 46 47 46 46 47 48 46 43 41 40 41 42 41 40 39 37 36 35 34 34 35 36 35 33 33 34 33 31 31 31 29 27 26 25 24 23
5 4 4 4 4 5 5 2 2 3 2 2 4 6 7 8 9 9 9 10 10 12 13 14 15 19 22 22 22 24 25 26 27 28 28 29 29 31 31 30 30 33 33 31 30 33 37 40 42 43 45 46 47 46 44 45 46 45 44 41 40 41 42 42 41 39 37 36 35 35 36 36 35 34 34 34 33 32 32 31 30 29 28 26 25 24
4 3 4 6 5 4 4 2 1 1 1 1 3 5 7 8 8 9 10 10 10 11 12 13 16 20 21 20 21 23 23 24 26 27 27 29 29 31 32 31 30 33 35 33 31 32 35 38 41 43 44 44 46 45 42 42 44 45 45 44 42 42 42 42 42 40 38 37 36 36 37 37 36 35 34 34 33 33 33 32 31 30 29 27 26 25
4 4 5 6 6 5 4 4 4 3 2 2 3 5 5 6 7 8 9 11 11 11 12 12 17 22 21 18 20 22 23 24 25 25 26 27 29 30 31 32 31 32 33 34 33 32 33 36 39 42 44 44 45 44 42 41 43 44 45 45 44 44 43 43 42 41 40 38 36 36 37 38 37 36 35 35 33 33 34 33 32 31 30 29 28 26
4 4 5 6 6 6 6 6 5 5 5 4 4 4 4 4 5 6 7 9 9 10 11 10 14 19 18 18 21 22 23 24 25 26 26 27 29 30 30 32 32 31 31 32 33 33 33 35 37 41 45 47 47 47 44 41 41 43 45 46 45 45 45 44 43 42 41 39 38 37 37 38 39 38 37 37 35 34 34 33 32 31 31 30 29 27
5 5 6 7 6 6 7 5 3 4 4 4 4 5 4 4 5 6 7 8 9 11 11 9 12 14 12 15 19 20 22 24 25 26 28 28 30 31 31 32 32 33 33 33 34 35 35 35 36 38 42 47 49 49 48 45 42 42 43 45 46 47 46 45 44 43 42 40 39 39 38 38 39 39 39 39 37 35 34 33 33 32 31 30 29 28
5 5 6 7 7 7 6 4 3 3 3 4 6 6 6 6 6 8 9 9 10 12 12 11 13 13 9 10 15 18 21 23 25 27 29 30 31 32 33 33 33 34 35 34 35 37 37 37 38 38 40 44 48 50 50 49 47 44 43 44 45 46 47 46 45 45 43 41 40 41 40 39 38 39 39 39 38 37 36 35 34 33 32 31 30 29
4 5 5 5 5 5 5 4 4 5 6 6 7 8 9 9 9 10 11 12 12 12 14 15 17 18 17 16 17 20 22 25 27 30 31 32 33 34 34 35 35 35 36 36 36 37 39 39 40 40 40 42 45 48 50 50 49 47 45 45 45 45 46 47 47 46 45 43 43 43 42 40 39 39 39 39 39 38 37 37 36 35 34 32 31 30
4 5 5 4 4 5 6 7 7 7 8 9 10 11 11 12 12 12 12 14 13 14 17 18 19 24 26 24 23 23 24 26 28 31 33 36 37 37 36 37 37 37 37 38 37 36 38 40 41 42 42 43 43 46 49 51 51 49 47 47 46 45 44 46 48 48 46 45 44 44 43 42 40 39 39 39 39 38 37 37 37 36 35 34 33 32
5 6 5 5 6 7 8 8 8 8 9 11 11 12 12 12 13 14 15 17 16 16 19 19 19 24 28 26 26 26 26 26 27 29 33 36 39 41 41 40 40 40 39 40 39 38 38 39 41 42 43 43 44 44 46 48 50 51 49 48 48 47 46 45 46 47 47 46 45 44 44 43 41 40 39 39 39 39 38 37 37 37 35 34 34 33
5 6 6 6 7 9 9 9 9 9 9 10 11 12 12 12 13 14 16 18 18 19 22 23 24 28 29 28 29 29 29 30 30 32 34 36 39 42 44 44 44 43 42 42 42 41 40 40 41 42 44 44 45 45 45 45 47 49 49 48 48 49 49 47 46 46 47 46 45 44 44 43 41 40 39 39 39 39 39 38 37 37 36 35 35 34
5 6 7 8 9 10 9 9 10 10 10 10 9 8 9 10 11 13 15 17 19 22 25 26 28 30 29 29 31 31 32 34 35 36 37 38 39 41 44 46 47 47 45 44 44 43 42 42 42 43 44 46 46 46 46 45 46 47 47 47 47 47 48 47 46 45 46 46 44 43 43 42 41 40 39 39 38 38 38 37 37 37 36 36 35 33
6 7 8 9 10 10 9 8 9 9 9 8 6 5 8 11 12 14 16 17 18 21 23 24 26 27 25 24 27 29 30 32 34 36 37 38 40 42 43 46 48 49 49 47 46 45 44 44 44 44 44 46 47 47 47 46 46 46 46 45 45 45 45 45 43 42 44 45 43 42 42 41 41 41 40 39 38 38 37 36 36 37 37 36 35 34
7 8 10 10 9 9 9 8 9 9 7 5 4 5 9 12 14 16 17 17 18 20 21 21 22 23 21 22 25 27 29 30 32 34 35 36 39 42 44 47 49 51 52 51 49 47 45 44 44 44 44 46 47 47 48 47 46 46 46 46 45 45 46 45 42 39 40 42 42 42 41 41 41 41 40 39 39 38 37 37 37 36 36 36 35 34
7 8 10 9 8 9 10 10 10 10 7 4 3 7 11 14 17 18 17 17 16 16 18 18 19 21 22 24 27 27 26 28 31 33 35 35 37 40 43 46 49 51 52 53 51 50 48 45 44 44 45 45 47 47 48 48 47 46 47 46 46 46 47 47 44 40 38 39 41 41 41 41 41 41 40 40 40 39 39 38 38 37 36 36 35 34
8 8 9 8 8 9 11 12 11 8 7 6 5 8 14 18 19 19 18 18 16 14 15 17 20 23 25 26 28 28 25 27 31 33 34 35 36 38 40 44 48 51 52 53 53 52 50 47 45 44 44 45 46 47 47 48 48 47 47 46 46 46 47 48 47 43 40 39 40 41 41 42 41 41 41 40 40 40 40 39 39 38 37 36 36 35
9 10 9 8 8 9 11 12 10 8 8 7 6 10 15 18 19 19 19 18 16 15 17 19 22 25 27 29 31 31 31 33 35 35 35 36 37 38 38 41 45 49 52 53 53 52 51 50 46 44 44 44 44 45 46 47 48 48 47 47 46 46 46 46 46 45 42 40 40 41 42 42 42 41 41 41 41 41 41 41 40 40 39 37 37 36
9 10 9 8 8 9 11 11 9 8 8 7 8 13 17 18 19 20 19 18 18 18 20 22 26 28 29 32 34 35 36 36 34 33 33 34 37 40 40 40 42 46 50 52 54 52 51 50 48 46 45 44 43 43 44 46 47 47 46 47 47 47 46 46 45 44 43 42 41 41 42 42 43 42 42 42 42 42 42 42 41 41 40 39 38 37
9 10 11 10 9 9 11 11 9 8 7 8 13 17 19 19 20 19 19 20 22 22 23 25 29 30 31 33 35 35 35 33 27 25 26 28 32 38 41 42 42 45 48 50 52 52 51 50 49 47 46 45 44 43 44 45 45 46 46 46 45 46 46 46 45 44 44 42 41 41 43 43 44 44 43 43 43 43 43 42 42 41 40 39 39 38
9 10 11 10 9 10 11 10 9 9 8 11 17 20 19 20 20 18 17 20 22 24 26 28 30 32 33 34 36 35 33 30 23 20 22 24 26 32 38 41 41 43 47 49 51 52 51 51 49 48 47 46 45 44 44 45 45 46 46 46 45 45 45 45 45 45 44 43 42 41 42 44 45 44 44 43 43 43 42 42 41 41 40 40 40 39
11 11 11 11 11 12 12 9 10 9 9 13 20 21 20 22 21 18 16 17 22 28 30 31 31 33 34 35 37 36 32 29 25 21 21 22 22 25 31 36 39 41 45 49 50 50 50 50 49 48 47 46 45 44 44 45 46 46 47 46 45 45 44 44 45 45 44 44 43 42 42 43 44 44 43 43 43 42 42 41 40 40 40 40 39 39
11 11 12 13 12 13 12 10 10 9 10 16 21 21 23 24 21 18 16 19 27 32 33 32 33 33 34 36 37 34 29 27 26 24 22 20 18 19 23 29 35 39 43 47 49 48 48 48 48 46 45 45 45 44 43 43 45 46 46 46 46 45 45 44 44 44 44 43 42 41 41 41 42 43 43 42 42 41 41 40 40 40 39 39 39 39
11 11 12 12 12 14 13 11 10 10 11 17 21 22 25 23 19 18 20 24 30 33 33 34 34 34 35 37 37 33 28 27 28 27 23 18 15 14 16 22 30 36 40 45 48 46 45 46 46 46 45 44 44 44 43 43 43 44 45 45 45 45 45 44 44 43 42 42 41 40 40 40 40 41 42 42 41 41 40 40 39 39 39 39 39 39
12 11 11 12 12 13 12 11 11 10 12 18 21 22 23 21 19 20 23 26 29 32 33 34 34 34 36 37 37 34 30 29 30 29 23 16 13 10 9 17 25 31 37 42 46 45 43 43 44 44 45 44 43 43 42 42 42 43 43 43 43 43 43 43 42 42 41 41 41 39 38 37 38 40 41 41 41 41 40 40 39 39 39 38 39 39
11 11 12 12 11 11 12 13 12 12 16 21 22 21 20 21 20 22 23 26 28 31 32 33 33 35 36 38 38 35 30 30 31 30 24 14 9 7 3 13 22 27 33 38 42 43 42 41 41 42 43 43 43 42 42 41 42 42 43 43 42 42 41 41 41 41 40 40 40 39 37 36 36 38 40 41 41 41 40 39 39 39 38 38 38 38
10 11 12 12 11 11 12 13 13 13 17 21 21 19 20 21 22 22 23 25 28 30 32 31 33 35 37 38 39 36 32 31 31 30 26 16 9 7 3 10 18 23 28 33 38 40 40 39 40 40 41 41 42 42 41 41 42 43 43 43 42 41 40 40 40 40 40 40 40 39 37 35 35 36 38 41 41 41 40 39 39 38 38 38 38 37
10 10 11 11 11 11 11 12 13 14 17 20 19 19 20 22 23 23 23 24 26 30 31 31 32 35 36 38 39 37 35 33 30 28 27 20 12 8 6 10 15 19 23 28 32 35 36 37 37 38 39 40 40 40 40 41 42 43 43 43 42 40 39 39 38 39 39 40 40 39 37 36 35 35 37 39 41 40 40 39 38 38 38 37 37 37
9 10 10 11 11 11 11 12 13 14 17 19 19 20 21 23 24 23 22 23 26 29 30 30 31 33 35 37 38 38 38 36 30 27 28 25 18 12 8 9 13 16 19 23 27 30 31 32 34 35 37 38 39 39 40 41 42 43 43 43 42 41 40 38 38 39 39 39 39 39 38 37 36 35 36 39 40 40 40 39 39 38 38 37 37 37
10 11 11 11 12 12 13 14 15 15 17 19 20 21 22 24 24 23 22 22 25 28 29 29 30 32 34 35 36 37 38 39 34 28 27 27 24 18 11 8 11 14 17 20 23 25 27 29 31 33 35 36 37 37 38 39 41 42 42 42 43 42 41 39 39 40 40 39 38 39 38 38 37 36 36 38 40 40 39 39 38 38 38 38 37 36
10 11 11 11 12 12 13 15 16 16 16 18 19 21 23 24 25 24 23 22 24 27 28 28 29 30 32 34 36 35 36 38 37 31 26 24 25 23 17 11 9 11 13 16 19 21 23 25 27 30 32 33 35 35 36 38 39 40 41 41 42 42 41 40 40 40 40 39 38 38 38 38 38 37 36 37 39 40 39 38 38 38 38 38 37 36
10 10 11 11 12 12 13 15 17 16 16 18 20 21 23 25 25 25 24 23 24 26 27 29 29 29 30 33 34 35 35 35 37 36 30 24 22 23 21 17 12 9 9 12 16 18 20 22 23 25 27 29 31 33 35 37 38 39 40 40 41 41 40 40 41 40 40 39 38 38 39 39 38 37 37 38 39 39 39 38 38 38 37 37 37 37
10 10 10 11 12 13 14 16 18 16 15 18 21 21 23 24 24 25 25 25 25 26 26 28 29 29 29 31 32 34 34 33 34 35 34 29 24 21 21 19 17 14 10 9 12 15 17 19 20 22 23 25 28 30 32 34 36 37 39 39 39 40 40 40 40 39 39 39 39 39 39 39 39 38 37 38 39 39 38 37 37 36 36 37 37 37
9 9 10 11 11 12 14 17 17 15 15 18 20 21 22 23 24 25 25 25 25 25 25 26 27 28 28 29 30 31 33 32 31 31 33 33 30 26 22 19 17 16 14 12 11 10 12 15 17 18 20 22 24 26 28 30 32 35 37 38 38 39 39 40 39 38 38 39 39 39 39 39 39 38 38 38 39 38 37 36 35 35 35 35 36 36
Wind_Direction
222 221 230 219 215 215 216 214 217 223 225 228 230 228 228 230 229 228 229 225 219 222 226 223 222 222 223 223 219 216 213 210 209 211 217 220 218 214 212 212 215 217 217 217 216 213 210 211 213 213 212 213 214 215 215 215 215 216 214 214 217 218 219 219 220 221 219 216 212 210 212 212 216 219 216 216 213 208 208 209 212 216 219 223 228 231
209 212 220 213 211 212 216 218 220 226 227 228 230 231 232 232 231 229 229 228 222 225 228 225 223 224 223 222 219 215 213 213 212 210 213 216 219 221 218 214 214 216 217 216 215 213 212 213 213 213 211 211 211 212 214 216 215 215 215 215 216 217 218 218 218 219 218 216 212 209 210 211 215 218 214 213 212 209 210 210 212 217 218 222 228 232
222 226 232 230 227 225 227 228 226 227 226 227 229 230 231 230 231 231 230 228 223 225 229 229 228 227 223 221 219 217 216 216 215 214 213 213 214 219 221 218 215 214 215 215 214 214 213 212 212 212 212 210 211 212 214 215 213 213 214 213 213 214 214 214 215 217 217 216 214 211 211 212 215 217 213 213 212 210 210 210 212 216 217 221 225 230
244 239 247 249 239 232 234 230 222 223 223 222 221 221 225 226 225 227 229 229 226 225 228 230 231 228 224 221 220 220 219 218 217 217 216 215 214 217 219 218 215 215 215 215 214 214 213 212 211 213 213 211 211 213 214 213 211 210 211 211 210 210 211 213 214 216 216 215 214 212 212 213 216 217 213 211 211 210 210 210 212 216 217 219 224 228
255 247 261 270 250 238 241 237 225 222 227 225 218 215 220 225 225 223 226 230 230 228 227 227 231 230 225 222 221 221 220 219 218 219 219 218 217 218 219 217 216 216 216 215 214 215 214 213 213 213 212 211 212 214 216 215 211 209 208 207 208 207 209 212 214 217 217 216 215 213 212 213 215 216 212 208 208 209 210 211 213 216 217 219 223 227
258 257 284 299 273 252 243 243 233 222 229 232 224 217 218 226 230 226 224 226 225 226 225 221 227 231 226 222 221 220 221 219 217 218 220 218 217 218 219 218 216 215 215 215 214 215 215 215 216 214 212 212 213 216 218 218 214 211 209 208 208 209 211 213 214 215 216 216 216 214 212 212 215 215 212 207 206 208 210 211 214 217 218 219 223 228
257 269 283 292 279 259 240 241 236 227 230 232 225 220 222 226 228 225 221 218 217 222 224 218 219 228 227 223 221 219 220 221 218 218 220 218 216 218 220 219 215 214 215 215 215 215 215 217 218 217 215 214 215 216 219 219 217 214 213 211 210 212 214 215 215 214 214 215 216 216 213 212 214 215 214 209 207 210 211 213 216 218 219 220 224 229
264 278 277 280 281 266 246 236 234 237 233 229 227 224 225 224 222 221 219 215 217 222 226 224 220 225 227 222 220 218 217 221 221 221 223 221 217 217 219 219 216 214 215 215 216 217 216 217 220 221 219 218 217 216 217 218 217 216 215 214 214 215 216 218 218 216 215 215 216 216 214 213 213 215 216 212 209 211 213 214 217 219 219 220 225 229
264 273 273 275 276 263 244 235 241 245 232 231 234 229 223 221 220 219 216 218 221 221 224 228 223 223 225 220 219 218 217 222 223 222 223 223 221 220 219 219 218 216 216 217 218 218 217 218 219 221 223 223 220 219 218 217 216 216 216 216 218 219 219 220 219 216 216 216 216 216 215 214 215 215 217 215 212 211 213 215 217 218 219 221 225 229
260 262 265 262 262 258 247 242 247 244 235 240 242 232 226 225 223 219 215 219 222 218 220 225 222 220 225 222 218 217 218 221 222 221 222 223 223 223 221 220 219 219 220 220 221 221 220 220 221 223 224 223 222 222 221 217 214 215 216 218 220 221 220 219 217 216 217 217 217 216 215 216 217 216 217 218 214 211 213 216 217 218 219 221 225 228
264 262 258 250 253 256 254 251 245 239 244 248 248 242 239 239 231 224 221 219 219 220 220 221 220 219 225 224 217 216 217 218 219 221 222 222 223 225 224 221 218 219 221 222 223 223 222 223 223 225 224 222 222 223 220 217 215 215 216 219 221 221 219 218 217 216 217 217 218 218 218 218 218 217 217 218 214 212 214 216 217 218 219 221 224 226
286 272 256 251 260 261 263 261 249 246 249 243 244 248 246 248 240 230 229 222 217 221 221 223 227 224 223 224 219 218 220 218 217 219 221 221 222 224 226 224 221 221 222 223 224 224 223 224 224 224 224 223 223 222 219 217 216 217 218 221 222 221 218 217 217 215 216 216 217 218 218 218 218 216 216 218 216 212 213 215 216 216 217 221 223 224
314 279 260 265 273 269 265 267 259 254 251 242 248 250 240 243 242 232 229 224 219 221 223 230 237 231 227 227 224 223 224 222 219 219 221 221 222 224 226 226 225 224 226 226 226 225 224 224 224 224 223 224 225 222 217 216 217 219 221 222 221 219 217 217 216 216 216 215 214 215 215 215 216 216 216 217 216 213 213 215 215 215 216 219 221 223
325 307 311 306 291 282 268 259 253 251 250 245 245 242 230 228 233 235 232 229 228 228 229 235 240 237 234 231 226 225 227 227 225 222 222 223 222 223 226 227 227 226 228 230 227 225 225 224 225 225 223 222 223 221 217 216 218 219 220 220 219 217 217 216 216 217 216 215 213 214 214 214 215 215 215 215 214 212 213 215 215 215 217 219 222 224
330 305 314 314 296 293 281 251 237 238 248 245 235 231 231 226 225 230 229 229 234 236 237 237 235 232 230 229 229 229 230 231 230 227 225 224 223 223 225 227 228 228 230 232 230 226 225 225 224 223 222 220 218 216 215 215 217 218 219 219 217 216 216 216 217 218 218 217 215 214 215 215 215 215 215 215 214 212 214 216 216 218 219 222 224 226
338 283 292 302 293 289 285 266 243 236 246 247 238 234 237 232 228 233 233 231 235 241 241 236 234 233 231 234 234 233 234 233 233 232 231 229 227 225 227 229 230 230 231 232 232 227 225 224 222 221 221 219 217 216 215 215 216 217 218 218 217 216 216 216 217 218 218 218 217 215 215 217 217 216 216 217 216 215 215 217 218 220 222 225 227 229
338 295 297 314 311 288 266 269 264 239 239 246 243 238 237 232 229 239 245 243 240 241 241 238 240 242 242 242 238 235 237 236 233 233 233 233 231 228 229 232 232 231 229 230 231 227 224 223 221 221 221 220 218 217 217 217 218 218 218 217 217 217 217 217 216 217 218 219 218 217 216 217 218 217 218 218 217 217 217 217 218 221 223 227 230 231
338 309 301 317 321 311 287 272 292 267 236 236 237 234 235 237 236 235 240 245 244 241 243 243 243 246 245 243 240 238 238 237 235 234 234 235 234 230 230 233 232 229 228 230 231 228 224 222 222 221 222 222 222 219 216 216 217 218 218 217 216 217 217 217 217 218 218 219 219 219 219 219 219 219 220 220 219 219 219 219 219 222 225 228 231 234
338 323 307 312 317 323 328 321 316 308 260 224 225 225 222 229 238 238 235 240 244 245 247 248 246 245 243 241 241 240 238 238 237 236 236 236 234 232 231 233 233 231 229 230 232 229 225 222 222 222 222 223 224 221 216 215 216 216 216 217 217 218 218 218 218 218 219 219 220 221 221 220 220 220 221 221 221 220 221 222 222 224 227 230 233 235
333 332 309 314 329 332 338 348 322 316 310 232 222 224 221 224 233 238 236 235 239 246 250 253 251 246 242 239 239 240 239 238 239 238 237 236 235 234 234 235 234 231 230 229 230 229 226 223 223 223 221 221 222 221 216 214 214 214 215 217 219 219 219 218 219 219 220 220 221 221 221 220 220 220 221 223 222 222 223 224 225 226 228 230 233 236
334 339 308 313 332 334 319 306 283 291 356 198 221 232 235 237 241 245 245 241 241 246 250 255 256 250 244 239 238 240 240 238 238 238 237 235 236 236 236 237 236 232 229 228 228 229 227 225 224 223 222 218 216 217 216 214 214 215 216 218 220 220 219 219 219 220 221 220 221 221 220 219 219 220 222 224 224 224 225 226 227 228 229 231 233 236
340 338 318 316 326 323 294 274 266 257 249 230 234 239 238 241 245 247 252 251 248 249 252 259 264 259 249 241 241 241 240 239 239 238 237 236 236 237 236 236 236 234 230 229 229 229 227 227 225 223 221 217 212 213 215 215 216 217 217 218 219 220 219 219 219 220 220 220 221 222 221 220 220 221 222 224 226 226 226 227 229 230 231 232 233 236
334 332 323 316 315 310 294 278 265 259 257 250 251 260 261 255 246 241 251 259 259 262 264 270 275 267 251 238 240 242 241 242 241 239 238 237 236 238 238 237 236 235 232 231 230 228 227 227 225 222 220 217 215 216 217 217 217 217 217 217 219 219 218 218 218 219 219 221 222 223 222 222 223 223 224 225 227 227 226 227 229 230 231 233 234 236
330 336 334 322 318 317 310 300 282 268 261 258 267 275 269 261 256 251 255 264 267 266 269 274 275 272 258 240 240 243 245 246 246 243 241 239 237 237 238 237 236 234 233 232 230 228 227 226 224 221 219 217 218 219 220 221 221 220 218 218 219 219 218 218 218 219 221 223 225 224 223 223 224 225 226 227 228 228 227 228 228 230 231 233 235 236
337 341 346 340 339 342 344 354 345 318 295 272 270 270 266 270 280 276 273 277 272 262 258 258 260 264 266 259 255 254 254 252 250 249 245 242 239 238 238 238 236 234 233 232 231 229 227 224 223 222 220 218 219 220 221 223 224 224 221 220 220 220 219 220 221 222 224 226 226 224 224 225 225 227 228 229 229 229 229 229 229 230 231 233 235 236
347 344 349 351 355 348 338 336 324 312 306 292 281 280 281 284 289 289 286 281 276 272 263 253 257 267 271 271 270 266 262 258 255 254 251 248 244 240 239 238 236 235 234 232 231 230 228 225 223 222 222 220 220 221 222 223 224 224 223 222 223 223 222 222 223 224 226 227 226 224 224 225 227 228 229 229 229 229 230 230 230 230 231 233 235 236
5 351 345 338 330 319 312 307 304 304 301 294 290 290 288 287 287 288 284 277 277 283 274 259 262 274 274 272 272 268 265 263 259 256 253 251 248 243 240 239 237 235 234 232 230 229 228 226 224 223 222 221 221 221 221 222 224 225 224 223 223 224 225 225 224 225 226 225 225 224 224 225 227 229 230 230 229 230 231 231 230 230 231 233 235 236
8 348 340 329 315 311 311 307 306 304 296 290 291 291 290 292 291 287 282 280 280 278 275 272 273 274 274 274 274 272 269 266 262 258 255 252 249 246 242 239 237 235 234 233 231 228 227 225 225 224 223 221 221 221 220 221 223 224 225 225 224 224 226 227 225 223 222 223 223 223 223 225 227 229 230 230 229 230 231 230 230 231 232 233 234 236
3 342 338 333 321 315 314 312 311 308 300 297 297 297 299 301 297 292 287 286 282 274 278 285 283 277 277 279 278 275 273 271 266 261 258 253 250 246 243 239 237 235 234 233 232 230 227 225 224 224 223 222 221 221 220 220 221 222 223 225 225 226 227 228 226 222 220 221 222 223 223 224 226 228 230 230 229 229 230 230 231 232 232 233 234 235
358 341 338 338 331 324 320 316 313 308 304 303 301 303 312 311 302 301 298 292 285 280 283 289 286 281 281 283 282 278 273 270 268 263 258 254 249 246 243 240 236 234 232 232 231 230 228 226 224 224 224 222 221 221 221 221 221 221 222 223 224 224 224 225 225 222 220 220 221 222 223 224 225 227 228 229 229 229 229 230 231 232 232 232 233 234
357 345 344 344 338 334 332 326 317 311 307 306 305 309 319 318 315 313 309 302 297 292 291 292 289 287 288 289 288 285 277 272 271 266 261 255 250 246 243 239 236 233 231 230 229 229 228 227 224 224 224 223 221 221 221 222 221 220 220 221 220 219 218 218 222 222 219 218 220 221 222 223 224 226 227 227 228 229 230 230 231 231 231 231 232 233
356 348 349 349 340 338 345 344 333 328 319 306 312 327 326 327 326 321 315 310 307 303 301 299 295 296 301 302 300 295 286 279 275 271 266 260 252 246 242 238 235 233 231 229 228 227 227 226 224 223 223 223 222 221 220 220 220 219 218 218 218 217 215 216 220 221 219 218 220 221 222 223 224 226 227 227 228 229 230 231 231 230 229 230 231 232
1 354 353 352 342 339 348 348 340 343 344 336 342 341 335 333 330 325 321 317 313 310 309 306 303 305 309 311 310 305 294 284 279 273 268 262 255 248 243 239 234 231 229 228 226 225 225 225 224 222 222 222 221 220 219 219 219 219 218 217 217 217 217 218 219 220 220 220 221 222 223 224 225 226 227 228 229 229 230 230 230 229 229 230 231 233
6 0 356 354 344 338 345 345 343 355 6 1 354 345 341 339 335 331 329 326 322 318 313 312 312 312 311 311 312 310 301 291 283 276 267 261 256 250 245 240 234 230 227 226 225 224 223 223 223 222 221 221 220 219 219 219 219 219 218 217 216 216 218 219 220 222 224 224 224 224 225 225 226 227 227 229 230 230 230 230 230 230 231 232 233 234
4 1 358 356 346 338 344 347 351 6 9 356 346 342 339 339 336 331 329 329 328 325 321 320 319 315 312 312 312 310 304 294 285 278 270 261 254 251 247 241 235 229 226 224 223 222 221 221 222 221 219 219 219 218 218 219 219 219 218 217 216 217 218 219 221 224 226 227 226 226 226 227 228 228 229 230 231 231 231 231 231 232 233 234 235 235
4 2 2 1 353 347 350 351 353 0 359 350 344 341 339 340 339 337 334 335 337 336 332 328 324 321 319 318 317 314 308 300 289 280 274 264 254 249 246 242 236 230 225 221 220 219 218 219 219 218 217 216 217 217 217 217 217 217 217 216 216 217 218 220 222 224 226 228 228 228 228 229 230 230 231 231 231 231 231 231 232 233 234 235 235 236
10 7 7 6 2 357 351 346 348 354 359 358 350 346 345 343 342 341 335 336 343 345 339 332 328 327 327 325 323 318 314 311 302 286 278 270 257 249 245 240 235 230 224 220 218 217 216 216 217 216 215 215 215 215 216 216 216 216 216 216 216 217 218 220 222 224 226 228 229 229 230 230 231 232 232 232 231 231 231 232 232 233 233 234 235 236
15 13 12 9 7 4 354 348 354 360 5 1 351 346 345 341 341 341 332 334 348 351 344 338 334 334 335 334 331 327 323 324 320 300 289 283 266 251 244 238 232 227 222 217 214 214 214 215 215 215 214 214 214 215 217 217 217 216 217 218 217 218 219 220 223 225 227 229 230 231 232 232 232 232 232 231 230 230 231 232 232 232 233 234 235 236
14 17 19 16 11 7 1 358 2 3 4 358 350 347 347 343 343 345 336 338 352 352 345 343 340 339 339 338 338 336 333 333 330 316 305 296 277 257 245 235 227 223 219 213 211 211 212 213 213 213 212 212 214 215 216 217 218 218 218 219 219 219 220 221 224 226 228 230 231 232 233 233 232 231 230 230 230 230 230 231 232 232 233 233 234 235
14 16 17 15 10 7 4 1 3 4 360 354 350 349 347 343 345 352 349 346 349 347 344 345 344 342 341 340 341 342 340 339 334 323 315 306 288 266 247 231 221 217 214 209 207 208 210 211 211 211 211 211 213 215 216 216 218 219 219 220 220 221 222 222 224 227 228 230 231 232 231 231 230 229 228 228 228 229 229 230 231 231 232 232 233 234
12 13 13 11 7 5 6 1 359 2 358 354 354 352 348 346 352 360 354 345 344 343 343 345 344 343 343 343 345 345 342 341 337 329 322 314 301 280 250 225 214 210 208 205 203 205 207 209 211 211 211 211 212 214 216 216 217 218 219 220 220 221 222 223 224 226 227 228 228 229 229 230 230 229 227 227 228 228 228 229 230 230 231 231 232 234
9 8 8 8 5 5 6 0 358 3 359 355 355 354 353 356 360 355 347 343 343 343 345 346 346 345 345 347 349 347 344 345 345 341 334 323 313 301 255 215 204 202 203 201 200 203 205 207 209 211 211 212 212 213 215 216 216 217 218 219 219 219 220 221 222 223 225 225 224 226 228 229 230 229 227 226 226 227 227 228 229 230 230 231 232 233
8 7 5 6 4 3 5 4 3 1 353 351 354 359 1 2 355 345 342 345 347 347 347 348 349 349 349 352 354 352 350 351 352 351 349 342 336 338 262 198 191 193 197 198 198 200 202 204 207 209 210 211 212 213 215 215 216 215 216 217 218 218 219 219 219 221 223 223 222 224 226 228 230 229 227 225 225 225 226 227 228 229 230 230 231 233
10 11 6 4 4 3 3 4 1 351 345 348 355 358 356 352 347 342 343 347 350 351 351 352 352 352 353 356 359 360 358 357 357 359 1 3 8 18 76 169 178 184 191 195 197 198 199 202 205 207 208 210 212 214 215 215 215 215 216 216 217 217 218 219 219 220 221 221 221 223 225 227 229 230 227 225 224 224 225 226 227 228 229 230 230 232
8 9 5 1 3 4 360 354 349 343 342 347 352 352 349 347 346 345 345 347 350 352 353 354 354 355 356 358 3 6 5 2 3 8 13 19 28 42 87 143 163 174 183 190 194 196 198 201 204 206 208 209 211 213 215 215 214 214 215 216 216 217 218 219 219 220 220 220 221 222 224 227 229 230 228 225 223 223 224 224 226 227 228 229 230 231
359 2 5 3 0 1 357 348 345 345 346 348 352 353 351 350 350 349 348 349 351 352 353 356 357 358 360 2 6 9 11 11 13 17 20 27 36 49 85 133 154 166 175 184 190 195 198 200 202 205 208 209 211 214 215 215 214 213 214 215 216 217 219 219 219 220 220 221 222 222 224 226 229 230 229 226 224 223 223 224 225 227 228 229 229 230
356 358 1 0 358 0 360 353 350 350 348 349 354 356 355 353 353 353 352 351 352 352 354 357 360 1 4 6 8 12 15 18 20 22 24 31 38 46 67 116 148 162 172 181 187 193 196 199 202 205 207 210 212 213 214 214 213 213 214 215 217 218 219 220 220 221 222 222 223 223 224 226 228 229 229 226 224 223 223 224 225 226 227 228 229 230
358 356 356 357 356 355 352 348 348 350 351 353 356 358 357 356 355 355 355 355 356 357 357 359 2 5 8 10 12 13 16 20 22 24 27 34 39 44 55 81 124 152 168 179 186 191 195 198 201 205 208 211 212 213 213 213 213 213 213 215 217 219 220 220 221 222 223 223 223 224 225 226 227 228 228 226 223 222 223 223 224 226 227 229 229 229
354 353 354 356 353 350 348 348 350 353 354 356 358 359 358 357 356 357 357 358 359 1 1 1 4 8 11 13 14 15 18 22 25 27 32 37 40 45 52 64 86 116 150 173 183 189 193 196 200 203 207 210 211 211 212 212 212 212 213 214 216 218 219 220 221 222 224 224 224 224 225 226 226 226 226 225 222 222 223 224 224 226 228 229 230 230
352 352 355 357 355 352 352 351 352 354 353 353 356 359 358 358 358 358 358 359 1 3 3 3 5 9 13 16 17 18 20 24 27 30 35 39 42 46 52 58 70 85 104 137 166 181 190 194 198 201 204 206 207 209 210 211 212 213 214 215 216 217 218 219 221 222 223 224 224 224 225 225 225 225 225 224 222 221 223 224 225 227 229 230 231 230
344 345 351 355 351 346 345 346 350 352 349 350 355 358 357 358 0 0 360 -0 1 3 5 5 6 8 12 16 20 20 21 24 27 30 35 39 42 47 52 57 65 73 82 96 118 147 171 183 189 193 196 199 201 204 207 210 212 214 216 217 217 218 219 220 221 222 223 223 224 224 224 223 223 223 223 223 221 221 221 222 225 227 230 232 232 230